Wind_Speed
15 10 13 12 7 2 6 4 24 18 15 17 19 23 21 21 9 11 20 17 20 19 19 18 19 19 17 16 17 17 17 16 17 17 19 19 19 18 16 16 15 14 14 14 13 13 14 14 14
15 13 18 20 12 5 1 19 23 11 17 20 12 30 25 17 16 23 24 20 21 20 19 20 21 20 18 18 18 18 17 16 16 17 18 17 16 15 14 13 13 12 12 11 11 11 11 12 12
16 12 16 9 14 4 1 18 20 38 15 18 20 20 10 16 21 22 24 23 21 19 18 19 21 20 19 19 19 18 17 15 16 16 15 15 13 12 10 10 10 9 9 9 9 9 10 10 10
11 15 18 11 19 9 14 9 34 19 8 11 24 16 19 16 21 25 24 21 22 20 18 20 20 20 19 19 19 17 16 14 14 14 13 12 11 9 7 7 7 7 7 7 7 7 7 8 9
14 16 13 18 25 19 23 48 51 19 12 12 25 16 14 9 21 25 24 21 22 19 19 21 20 20 19 18 18 16 14 13 13 12 10 9 7 6 5 6 6 6 6 6 7 6 6 7 7
20 21 15 17 13 7 25 41 20 33 26 25 25 21 11 16 23 25 22 22 23 17 19 21 20 20 19 18 17 15 14 13 12 11 9 7 5 4 4 4 5 6 7 7 7 7 6 6 7
18 13 19 24 18 8 9 8 7 37 37 9 31 14 17 22 23 24 23 22 21 19 17 20 19 19 18 18 17 15 12 12 11 9 7 5 4 3 4 4 5 6 7 8 7 7 6 6 7
23 14 23 21 19 7 21 2 8 12 15 13 16 9 16 28 26 24 23 20 20 19 17 17 18 18 16 15 15 14 11 10 8 7 6 5 5 5 5 4 4 6 6 7 7 8 7 7 9
23 15 16 22 23 6 4 8 10 20 32 14 5 21 31 31 28 26 23 22 21 17 18 17 16 15 12 12 13 12 10 8 7 5 4 7 4 6 5 6 6 6 6 7 6 7 7 5 5
20 15 22 23 24 8 6 7 12 9 15 16 22 30 35 30 28 27 27 25 22 18 19 18 18 14 14 11 9 11 10 7 4 3 2 7 3 4 5 8 6 8 9 5 9 10 6 10 12
24 19 19 27 32 21 7 9 12 14 11 19 26 32 31 30 27 24 25 22 19 20 20 19 19 20 17 13 5 9 4 3 4 10 11 5 6 5 4 8 8 5 6 8 8 9 7 6 6
21 27 24 32 38 34 16 6 15 44 13 31 24 26 31 29 26 24 23 21 21 21 20 19 17 22 16 13 9 8 13 7 8 5 8 6 4 2 4 2 3 8 4 2 5 5 11 14 5
19 20 24 26 32 34 16 17 20 37 17 36 21 27 27 28 24 24 24 22 21 22 20 20 19 23 17 13 15 11 13 9 11 10 10 11 8 8 9 9 10 7 11 5 6 6 13 10 3
18 19 25 25 30 25 20 19 23 6 7 27 32 27 25 26 24 24 25 23 23 20 22 18 17 19 18 20 14 18 15 15 11 13 17 16 15 16 15 5 5 9 11 9 8 8 11 8 5
21 17 19 20 26 20 20 23 18 30 31 29 26 26 25 25 24 23 21 21 22 20 20 22 16 15 14 18 18 15 15 10 13 20 18 14 17 13 11 10 13 15 10 9 11 11 10 9 9
11 16 16 18 19 22 17 22 18 21 25 26 24 28 28 26 22 21 22 23 22 22 21 19 16 19 20 18 16 12 15 14 12 13 12 13 13 13 11 9 15 11 10 13 15 13 12 14 14
16 13 19 20 21 20 19 20 16 22 25 25 25 25 27 27 25 25 24 25 24 25 25 22 16 17 21 18 17 15 16 13 13 9 12 11 12 11 12 15 16 10 11 16 16 16 15 11 13
18 16 12 15 20 21 18 20 18 30 24 26 28 25 25 28 30 29 28 26 25 22 24 24 20 20 22 19 18 18 15 14 12 17 17 12 11 10 11 15 13 15 16 18 16 12 9 9 9
17 20 18 20 14 20 20 20 19 20 24 26 32 31 32 29 27 29 29 27 25 23 23 26 27 27 25 20 18 14 13 14 17 17 14 13 12 11 12 16 13 17 16 15 9 6 1 7 2
20 18 16 13 19 17 13 20 18 21 23 28 31 36 34 31 34 25 27 28 26 27 25 26 21 25 21 18 15 14 15 13 14 15 12 11 11 11 12 16 14 13 12 10 6 6 7 4 2
14 15 16 18 18 19 17 20 16 17 29 31 18 7 10 28 36 36 32 28 26 24 26 21 24 21 19 16 23 22 25 19 14 9 10 9 11 11 11 11 9 9 11 6 6 5 7 2 3
16 18 19 19 17 14 18 15 17 18 19 22 30 41 56 57 36 38 38 32 26 22 21 19 21 20 20 17 22 24 20 11 7 8 11 9 8 7 6 7 7 7 7 5 6 7 10 8 5
17 18 18 18 18 20 20 14 18 16 22 24 29 39 44 42 44 40 33 31 26 21 18 19 17 17 22 21 13 15 13 14 15 13 7 5 4 4 3 5 7 7 5 5 6 8 12 11 8
18 17 17 15 17 16 20 19 17 18 19 19 21 38 39 40 41 41 34 29 27 23 19 17 18 13 15 16 14 12 14 14 14 10 4 4 1 3 4 5 6 7 6 6 7 7 6 10 9
21 15 12 15 15 15 20 20 17 21 21 20 21 20 39 40 44 45 41 33 28 26 22 17 16 15 12 14 13 14 16 16 12 9 9 7 4 2 6 5 5 6 7 6 6 6 6 6 9
21 17 10 8 14 18 24 15 13 14 6 24 24 2 20 36 28 39 33 33 29 24 20 19 16 13 11 12 12 12 14 12 10 6 11 6 12 9 6 6 8 7 8 8 6 6 6 8 8
19 14 21 18 19 16 15 22 21 31 35 22 23 26 10 23 40 46 36 30 26 25 22 19 17 15 14 13 12 14 10 13 16 15 13 10 9 4 8 7 7 7 8 9 5 5 7 8 7
17 18 17 6 8 11 12 11 10 26 28 31 33 20 32 37 42 35 29 26 26 25 24 19 17 17 15 13 12 11 9 9 10 14 10 12 11 11 7 7 7 7 8 11 5 4 6 6 5
18 16 18 2 3 3 8 3 12 17 21 22 34 44 20 21 31 35 31 29 27 24 22 21 19 16 14 14 14 14 12 11 9 10 10 9 9 7 5 5 5 6 6 8 7 5 5 3 4
16 14 11 7 12 9 10 9 9 13 23 26 33 42 37 26 28 31 34 30 25 25 24 21 25 23 23 21 20 18 11 7 13 14 13 11 8 7 5 6 6 5 5 6 7 7 3 3 3
Wind_Direction
305 321 328 267 257 336 19 92 277 284 90 94 70 87 105 119 206 124 132 137 131 141 139 142 135 132 129 128 127 124 114 112 112 112 114 114 113 109 101 96 93 92 89 84 77 72 69 67 63
300 286 272 262 258 123 241 274 273 272 107 107 104 113 94 89 119 130 132 137 140 133 142 144 136 132 131 133 132 127 118 118 120 121 121 120 118 113 106 99 93 89 86 81 75 68 63 59 57
289 292 276 244 250 57 242 247 264 270 130 143 110 83 73 111 121 133 137 139 130 133 146 145 139 136 136 139 134 127 122 127 131 129 128 126 121 113 105 94 88 86 84 78 68 63 58 52 48
281 292 237 258 261 176 198 271 247 228 150 135 98 93 94 113 132 135 141 135 133 144 157 150 144 139 140 141 140 132 133 132 139 139 137 132 126 118 107 96 87 78 67 55 56 52 49 48 53
261 264 277 264 264 182 216 184 242 177 135 124 117 115 108 107 128 139 143 139 140 151 155 153 149 147 148 150 148 139 138 140 147 148 147 141 132 119 101 83 71 63 55 47 38 37 35 41 47
257 249 261 270 284 34 216 198 99 69 309 115 108 119 111 130 137 144 145 143 149 156 153 155 156 156 155 157 157 153 152 154 155 155 151 142 133 114 88 71 60 44 36 29 27 26 29 34 39
244 260 257 264 273 264 296 160 179 149 201 164 140 114 139 146 146 148 148 144 136 144 161 159 163 162 162 164 167 165 162 161 161 156 150 136 111 76 58 42 41 35 32 30 32 31 36 43 40
244 254 266 275 278 292 306 272 159 100 39 99 129 150 157 157 153 152 152 153 147 150 150 155 165 165 168 173 177 175 174 173 168 161 153 132 90 45 26 356 33 28 27 35 40 39 42 54 53
245 252 257 263 269 247 140 239 166 112 142 171 153 146 149 153 155 156 156 154 160 158 159 156 159 164 158 185 185 185 185 182 179 171 155 119 63 33 332 360 359 351 0 13 18 17 36 34 358
236 247 249 260 268 347 323 257 156 160 146 138 92 122 141 151 159 160 163 159 162 162 159 167 161 162 166 190 193 195 192 184 170 140 243 150 20 204 185 318 359 37 29 19 31 26 38 348 343
239 242 256 262 268 300 169 231 19 201 174 154 129 137 146 154 162 166 170 166 169 169 166 166 178 170 165 178 219 178 204 167 140 187 217 178 199 233 279 298 304 13 354 6 342 346 321 272 266
252 242 242 264 279 291 261 157 87 298 84 98 141 154 153 160 165 168 172 172 171 172 172 173 179 163 172 183 179 175 193 188 231 262 233 188 205 173 249 305 358 335 58 331 312 284 292 278 288
241 259 250 254 268 274 289 282 181 208 129 154 168 167 159 163 170 171 170 168 167 169 167 169 178 176 183 161 183 185 190 180 214 203 250 179 198 229 192 231 234 251 254 248 257 256 278 285 304
252 255 272 257 262 268 270 267 263 149 72 139 163 161 168 168 172 169 161 158 161 170 173 178 182 185 180 163 180 190 181 202 194 195 222 209 196 217 213 221 228 228 237 238 246 252 274 283 277
257 266 260 264 258 259 260 261 253 153 170 143 159 167 171 170 170 154 157 164 167 172 168 181 173 180 176 182 182 179 193 212 204 227 228 219 214 223 214 209 221 237 250 258 258 264 268 271 259
245 241 255 263 243 244 245 258 236 169 149 159 169 179 173 170 161 163 166 167 175 170 179 175 177 181 180 190 181 173 178 180 194 232 229 218 218 227 203 217 242 260 267 273 276 277 273 274 269
245 242 239 244 259 223 230 251 265 229 172 164 176 187 176 164 166 173 174 173 177 181 180 164 179 196 182 176 167 183 188 182 195 211 239 219 221 218 223 234 253 261 261 268 273 276 272 275 273
258 229 254 236 231 217 222 223 238 255 183 176 178 187 188 179 178 178 175 177 178 183 182 173 174 197 190 187 183 198 179 187 196 209 229 233 234 232 230 254 262 264 265 267 280 270 267 264 279
263 279 294 305 298 181 211 231 222 172 189 196 182 189 192 190 184 181 177 181 182 183 187 178 188 198 202 191 176 185 187 192 212 230 236 238 242 243 236 254 262 271 272 272 268 238 288 248 222
254 269 276 294 298 302 262 225 227 179 196 208 198 184 191 187 185 189 186 184 185 185 194 193 194 208 203 195 182 190 194 194 216 240 240 241 247 252 250 259 264 261 269 264 250 184 160 297 203
274 276 283 276 277 279 275 273 273 197 198 210 200 246 254 194 187 191 196 189 187 191 192 203 198 205 184 190 192 189 198 207 236 247 246 245 250 249 247 243 246 225 245 252 220 199 158 111 18
266 271 255 259 259 264 267 264 233 241 226 199 199 203 189 206 191 188 186 186 188 192 190 195 201 206 189 201 205 209 213 236 201 200 245 246 227 237 231 227 214 213 227 214 187 177 156 148 116
271 265 272 277 277 277 248 267 276 261 230 219 211 204 198 184 183 184 185 181 179 181 183 192 198 201 195 192 193 203 183 203 183 210 221 221 200 190 191 187 190 190 205 180 167 166 166 154 150
297 297 285 270 271 256 261 254 255 259 263 254 228 201 202 189 181 180 177 178 171 171 171 181 187 189 199 187 186 185 200 178 190 221 170 111 97 173 167 179 185 172 162 160 157 154 161 161 138
335 319 279 268 241 245 239 243 254 260 261 261 271 245 202 194 188 174 163 166 164 159 162 171 178 180 175 171 175 178 173 170 189 157 145 162 150 225 154 128 130 159 159 145 126 109 114 114 139
329 324 300 288 308 305 311 295 297 297 2 15 352 229 187 195 189 144 151 155 156 151 150 156 165 158 157 157 160 163 176 171 156 133 183 158 186 214 177 162 167 139 135 129 112 131 105 106 94
302 280 288 299 299 295 285 293 289 10 2 9 4 348 353 158 135 138 147 150 143 145 149 149 145 144 139 141 143 127 131 162 171 164 149 162 181 230 150 147 139 140 133 103 88 117 114 94 72
285 306 302 5 298 295 272 261 28 4 1 354 350 358 54 106 120 127 128 133 138 140 142 141 143 141 138 137 132 137 147 157 167 153 154 165 163 174 158 153 151 142 138 135 98 39 99 116 118
320 311 311 273 242 296 307 52 13 10 10 355 336 337 87 108 119 123 128 131 130 132 134 136 145 145 139 133 136 128 124 125 123 156 157 162 198 148 137 134 137 129 125 134 149 117 95 86 75
283 326 350 335 289 270 265 275 52 27 2 0 342 334 330 131 126 124 128 131 138 137 133 142 147 152 157 155 153 149 156 151 155 149 150 135 142 131 127 141 126 118 124 118 125 140 103 91 65
Height
1508 1507 1504 1505 1508 1500 1528 1528 1500 1482 1468 1470 1477 1485 1502 1511 1529 1532 1529 1531 1532 1533 1536 1539 1541 1543 1546 1549 1551 1554 1555 1558 1559 1561 1562 1564 1565 1566 1567 1568 1569 1570 1570 1570 1570 1570 1570 1570 1569
1506 1507 1506 1502 1504 1530 1538 1515 1525 1484 1471 1474 1482 1486 1498 1512 1517 1522 1528 1531 1533 1533 1536 1539 1541 1544 1547 1550 1553 1555 1558 1560 1561 1563 1564 1565 1567 1568 1569 1570 1570 1571 1572 1572 1572 1572 1572 1572 1571
1505 1504 1505 1494 1488 1516 1531 1521 1508 1497 1476 1476 1481 1489 1502 1513 1519 1522 1529 1530 1534 1535 1536 1539 1542 1545 1548 1551 1554 1556 1559 1561 1563 1564 1566 1568 1569 1570 1571 1571 1572 1572 1573 1574 1574 1574 1574 1574 1573
1505 1503 1499 1496 1490 1501 1510 1515 1499 1489 1478 1474 1482 1497 1508 1514 1518 1523 1529 1531 1535 1536 1537 1540 1543 1546 1549 1552 1555 1558 1560 1562 1564 1566 1567 1569 1570 1571 1572 1573 1573 1574 1574 1575 1575 1575 1575 1575 1574
1506 1501 1494 1487 1474 1479 1484 1488 1479 1468 1475 1479 1483 1497 1507 1513 1516 1523 1528 1532 1535 1535 1537 1540 1543 1546 1550 1553 1556 1558 1561 1563 1564 1567 1568 1570 1571 1572 1573 1574 1575 1575 1576 1576 1576 1576 1576 1575 1575
1501 1496 1495 1487 1467 1466 1463 1470 1466 1472 1483 1481 1489 1497 1508 1513 1517 1522 1527 1532 1534 1535 1538 1540 1544 1547 1550 1554 1557 1559 1561 1563 1565 1567 1569 1571 1572 1573 1574 1575 1576 1576 1577 1577 1577 1577 1576 1576 1576
1498 1492 1488 1475 1465 1458 1450 1457 1462 1484 1480 1483 1483 1491 1506 1511 1517 1522 1527 1532 1534 1537 1537 1541 1545 1548 1551 1554 1557 1559 1562 1564 1566 1568 1570 1571 1573 1574 1575 1576 1576 1577 1577 1577 1577 1577 1577 1577 1577
1495 1490 1485 1472 1465 1462 1471 1456 1459 1463 1484 1485 1486 1491 1502 1506 1514 1521 1526 1531 1536 1538 1540 1542 1545 1549 1552 1555 1558 1560 1563 1565 1567 1569 1571 1572 1574 1575 1575 1576 1577 1577 1577 1577 1577 1578 1578 1577 1577
1493 1491 1487 1475 1463 1454 1455 1455 1454 1464 1477 1483 1483 1484 1489 1503 1512 1518 1525 1531 1536 1539 1541 1544 1547 1549 1553 1555 1558 1561 1564 1566 1568 1570 1572 1574 1575 1575 1575 1576 1577 1578 1578 1577 1578 1578 1578 1578 1578
1489 1486 1478 1466 1453 1452 1460 1453 1453 1459 1466 1475 1482 1484 1493 1503 1511 1516 1521 1528 1534 1538 1542 1545 1549 1551 1555 1557 1558 1561 1563 1566 1568 1570 1572 1574 1575 1577 1577 1577 1577 1578 1578 1578 1578 1578 1578 1578 1577
1483 1480 1474 1465 1457 1454 1455 1458 1477 1464 1465 1468 1482 1487 1494 1504 1511 1517 1521 1526 1532 1536 1541 1544 1547 1550 1555 1558 1558 1561 1563 1565 1567 1570 1571 1573 1574 1576 1577 1577 1576 1577 1578 1577 1578 1577 1577 1577 1576
1480 1473 1474 1470 1460 1457 1451 1459 1464 1478 1468 1469 1485 1495 1492 1500 1510 1514 1519 1524 1529 1535 1539 1542 1546 1549 1554 1557 1558 1561 1565 1566 1568 1568 1568 1571 1573 1575 1576 1577 1577 1577 1578 1578 1578 1578 1576 1575 1576
1474 1471 1469 1468 1462 1458 1453 1454 1466 1476 1469 1470 1493 1497 1492 1499 1507 1511 1516 1521 1527 1532 1537 1541 1543 1547 1551 1554 1557 1561 1564 1566 1567 1567 1567 1568 1571 1572 1573 1572 1574 1575 1574 1575 1575 1575 1574 1573 1574
1470 1471 1468 1464 1461 1457 1454 1453 1457 1469 1467 1465 1483 1483 1495 1498 1504 1509 1513 1518 1524 1531 1535 1539 1541 1544 1548 1552 1555 1557 1560 1562 1564 1564 1562 1565 1566 1567 1569 1570 1572 1571 1571 1571 1572 1571 1571 1571 1571
1468 1471 1465 1463 1461 1456 1455 1452 1455 1465 1477 1467 1476 1486 1493 1497 1502 1506 1512 1518 1524 1528 1533 1536 1541 1543 1547 1550 1551 1554 1557 1559 1559 1558 1560 1561 1562 1564 1566 1567 1567 1565 1568 1567 1567 1567 1567 1567 1568
1466 1468 1476 1463 1458 1456 1458 1462 1451 1460 1465 1474 1482 1488 1492 1494 1499 1505 1510 1517 1523 1526 1529 1533 1539 1540 1542 1545 1549 1553 1554 1555 1556 1556 1557 1558 1559 1561 1562 1563 1561 1564 1564 1564 1563 1563 1563 1563 1563
1460 1474 1468 1461 1452 1452 1457 1459 1453 1454 1459 1467 1476 1484 1485 1489 1495 1502 1508 1514 1518 1521 1525 1530 1535 1535 1539 1542 1546 1549 1550 1553 1553 1554 1553 1555 1556 1558 1559 1558 1558 1561 1559 1558 1559 1560 1558 1559 1559
1466 1459 1451 1449 1441 1439 1451 1453 1452 1448 1454 1460 1468 1477 1481 1485 1490 1496 1502 1509 1514 1517 1521 1526 1530 1532 1536 1540 1542 1545 1549 1549 1550 1548 1549 1552 1554 1555 1556 1554 1557 1557 1555 1554 1556 1556 1555 1554 1556
1464 1462 1460 1443 1431 1437 1445 1447 1444 1448 1455 1460 1466 1475 1479 1483 1493 1496 1497 1502 1508 1513 1517 1521 1525 1528 1532 1535 1539 1543 1545 1546 1544 1545 1547 1549 1551 1552 1553 1551 1553 1553 1553 1553 1553 1553 1554 1551 1553
1453 1456 1458 1448 1440 1439 1435 1438 1436 1439 1448 1455 1459 1466 1476 1483 1483 1496 1499 1498 1503 1508 1512 1517 1521 1524 1529 1533 1537 1540 1542 1542 1541 1542 1544 1546 1548 1549 1550 1550 1550 1550 1550 1550 1552 1552 1553 1551 1551
1455 1459 1456 1455 1443 1436 1439 1441 1435 1434 1440 1447 1452 1467 1470 1475 1476 1484 1494 1493 1498 1504 1509 1512 1517 1520 1526 1530 1532 1534 1535 1538 1540 1541 1540 1543 1544 1545 1546 1546 1546 1547 1547 1548 1549 1552 1552 1551 1550
1462 1448 1447 1449 1453 1463 1437 1456 1436 1433 1434 1438 1447 1455 1456 1467 1470 1478 1480 1484 1491 1499 1507 1511 1514 1518 1524 1525 1529 1531 1534 1537 1539 1539 1539 1541 1541 1542 1543 1543 1544 1545 1545 1546 1547 1550 1551 1552 1551
1452 1443 1444 1444 1447 1446 1445 1454 1436 1422 1423 1421 1427 1433 1444 1451 1461 1471 1477 1478 1484 1495 1502 1509 1512 1515 1519 1524 1527 1530 1534 1536 1537 1536 1538 1539 1540 1541 1541 1542 1542 1543 1543 1545 1547 1548 1549 1549 1551
1441 1443 1442 1442 1446 1455 1445 1443 1436 1426 1416 1411 1410 1415 1424 1433 1444 1452 1462 1476 1482 1490 1499 1505 1511 1514 1518 1522 1525 1530 1532 1533 1534 1536 1538 1540 1540 1540 1541 1541 1541 1541 1543 1545 1546 1547 1549 1550 1550
1450 1452 1463 1462 1454 1451 1427 1433 1425 1414 1407 1405 1405 1404 1410 1420 1426 1437 1454 1477 1485 1485 1494 1502 1509 1513 1517 1522 1524 1526 1529 1531 1533 1537 1540 1541 1541 1540 1541 1541 1542 1542 1544 1545 1547 1548 1549 1550 1550
1476 1473 1480 1495 1481 1469 1436 1444 1432 1410 1404 1412 1406 1403 1403 1414 1427 1435 1464 1465 1483 1485 1495 1501 1506 1512 1517 1521 1524 1527 1529 1532 1534 1537 1539 1542 1538 1539 1541 1541 1542 1543 1544 1545 1548 1548 1548 1548 1549
1470 1477 1458 1460 1458 1467 1450 1435 1427 1430 1433 1423 1422 1420 1416 1417 1428 1443 1467 1478 1476 1484 1495 1503 1508 1513 1518 1522 1525 1528 1531 1532 1533 1535 1538 1538 1537 1539 1541 1542 1543 1544 1545 1546 1547 1548 1548 1550 1550
1464 1456 1462 1471 1494 1488 1453 1450 1484 1478 1469 1461 1454 1443 1436 1434 1439 1454 1466 1473 1480 1489 1499 1503 1510 1514 1518 1521 1525 1528 1529 1531 1534 1537 1538 1538 1538 1540 1541 1542 1543 1544 1544 1546 1548 1548 1549 1549 1550
1470 1467 1463 1471 1485 1503 1497 1482 1499 1501 1491 1488 1479 1466 1453 1460 1454 1453 1466 1477 1484 1492 1498 1504 1510 1515 1520 1523 1524 1527 1530 1532 1535 1537 1538 1540 1540 1542 1544 1544 1545 1545 1545 1546 1548 1548 1549 1551 1551
1467 1467 1468 1487 1492 1490 1499 1493 1501 1498 1497 1491 1487 1480 1469 1457 1462 1462 1464 1475 1486 1490 1497 1507 1506 1513 1517 1519 1522 1524 1528 1532 1534 1536 1538 1541 1543 1544 1545 1545 1546 1546 1546 1547 1548 1550 1550 1551 1551